Regional Weather Roundup
Issued by NWS

Home | Current Version | Previous Version | Text Only | Print | Product List | Glossary Off
Versions: 1 2 3 4 5 6 7 8 9 10 11 12 13 14 15 16 17 18 19 20 21 22 23 24 25 26 27 28 29 30 31 32 33 34 35 36 37 38 39 40 41 42 43 44 45 46 47 48 49 50

824
ASUS43 KOAX 191410
RWRNE

WEATHER ROUNDUP FOR NEBRASKA
NATIONAL WEATHER SERVICE OMAHA NE
900 AM CDT THU APR 19 2018

NOTES: SATELLITE DATA IS BEING USED TO AUGMENT CLOUD COVER ABOVE
       12000 FEET.
       "FAIR" INDICATES FEW OR NO CLOUDS BELOW 12,000 FEET WITH NO
       SIGNIFICANT WEATHER AND/OR OBSTRUCTIONS TO VISIBILITY.


NEZ001>004-019>022-054>056-191500-
NEBRASKA PANHANDLE

CITY           SKY/WX    TMP DP  RH WIND       PRES   REMARKS
SCOTTSBLUFF    SUNNY     37  33  85 E14       30.33S WCI  28
ALLIANCE       SUNNY     36  34  92 S10       30.35R WCI  28
CHADRON        SUNNY     36  32  85 NE3       30.35R
GORDON         FAIR      33  32  94 CALM      30.37R
KIMBALL        SUNNY     36  29  74 SE13      30.32R WCI  27
SIDNEY         SUNNY     38  32  79 S13       30.35R WCI  30
$$

NEZ057>060-069>072-079>082-191500-
SOUTHWEST NEBRASKA

CITY           SKY/WX    TMP DP  RH WIND       PRES   REMARKS
NORTH PLATTE   SUNNY     35  31  85 NW3       30.43R
IMPERIAL       SUNNY     39  33  79 E7        30.40S WCI  34
LEXINGTON      SUNNY     34  30  88 CALM      30.44S
MCCOOK         SUNNY     34  31  88 CALM      30.44R
OGALLALA       SUNNY     35  32  87 CALM      30.40S
$$

NEZ005>010-023>029-035>040-094-191500-
NORTH CENTRAL NEBRASKA

CITY           SKY/WX    TMP DP  RH WIND       PRES   REMARKS
VALENTINE      SUNNY     33  31  92 CALM      30.42R
AINSWORTH      SUNNY     34  33  95 CALM      30.43R
BROKEN BOW     SUNNY     35  32  88 CALM      30.43R
O`NEILL        SUNNY     36  33  88 W5        30.45R WCI  32
ORD            SUNNY     33  31  92 NW7       30.45R WCI  27
THEDFORD       SUNNY     35  34  95 CALM      30.42S
$$

NEZ041-046>049-061>064-073>077-083>087-191500-
SOUTH CENTRAL NEBRASKA

CITY           SKY/WX    TMP DP  RH WIND       PRES   REMARKS
GRAND ISLAND   SUNNY     36  32  85 NW7       30.46R WCI  30
AURORA         SUNNY     36  33  89 N7        30.46R WCI  30
HASTINGS       SUNNY     37  33  85 N8        30.45R WCI  31
HEBRON         SUNNY     37  32  84 CALM      30.47R
HOLDREGE       SUNNY     36  33  89 N3        30.45R
KEARNEY        SUNNY     36  31  82 N8        30.46R WCI  30
YORK             N/A     37  37 100 N6        30.46R WCI  33
$$

NEZ011>018-030>034-042>045-191500-
NORTHEAST NEBRASKA

CITY           SKY/WX    TMP DP  RH WIND       PRES   REMARKS
NORFOLK        SUNNY     37  30  75 N5        30.43R WCI  33
ALBION         SUNNY     35  31  85 N3        30.45R
BLAIR          SUNNY     37  30  77 N10       30.43R WCI  30
COLUMBUS       SUNNY     38  30  73 N8        30.46R WCI  32
FREMONT        SUNNY     37  32  80 CALM      30.45R
TEKAMAH        SUNNY     36  30  79 N9        30.46R WCI  29
WAYNE          SUNNY     35  32  88 NE7       30.44R WCI  29
$$

NEZ050>053-065>068-078-088>093-191500-
SOUTHEAST NEBRASKA

CITY           SKY/WX    TMP DP  RH WIND       PRES   REMARKS
LINCOLN        SUNNY     38  32  79 N5        30.46R WCI  34
OMAHA EPPLEY   SUNNY     38  32  79 N10       30.45R WCI  31
BEATRICE       SUNNY     38  34  85 NW6       30.46R WCI  34
FALLS CITY     SUNNY     39  31  72 N7        30.45R WCI  34
NEBRASKA CITY  SUNNY     39  34  82 NE9       30.45R WCI  33
PLATTSMOUTH    SUNNY     37  32  81 NE5       30.44R WCI  34
$$

NEZ044-045-051>053-067-191500-
OMAHA AREA

CITY           SKY/WX    TMP DP  RH WIND       PRES   REMARKS
OMAHA EPPLEY   SUNNY     38  32  79 N10       30.45R WCI  31
BLAIR          SUNNY     37  30  77 N10       30.43R WCI  30
FREMONT        SUNNY     37  32  80 CALM      30.45R
MILLARD        SUNNY     39  31  73 N5        30.45R
OFFUTT AFB     SUNNY     40  31  69 N8        30.44R WCI  34
PLATTSMOUTH    SUNNY     37  32  81 NE5       30.44R WCI  34
WAHOO          FAIR      38  31  78 N6        30.46R WCI  33
$$




USA.gov is the U.S. government's official web portal to all federal, state and local government web resources and services.